Regional Weather Roundup
Issued by NWS Green Bay, WI

Home | Current Version | Previous Version | Graphics & Text | Print | Product List | Glossary Off
Versions: 1 2 3 4 5 6 7 8 9 10 11 12 13 14 15 16 17 18 19 20 21 22 23 24 25 26 27 28 29 30 31 32 33 34 35 36 37 38 39 40 41 42 43 44 45 46 47 48 49 50

000
ASUS43 KGRB 271700
RWRGRB

NORTH-CENTRAL AND NORTHEAST WISCONSIN REGIONAL WEATHER ROUNDUP
NATIONAL WEATHER SERVICE GREEN BAY WI
1200 PM CDT WED JUL 27 2016

WIZ005-009-010>012-018-019-271800-
NORTH CENTRAL WISCONSIN

CITY           SKY/WX    TMP DP  RH WIND       PRES   REMARKS
IRONWOOD       CLOUDY    70  66  88 S5        30.00R
MANITOWISH WTR NOT AVBL
ARBOR VITAE    NOT AVBL
EAGLE RIVER    NOT AVBL
LAND O LAKES   NOT AVBL
RHINELANDER    CLOUDY    70  64  81 E3        30.03F
PHILLIPS       NOT AVBL
ANTIGO         NOT AVBL
TOMAHAWK       NOT AVBL
MERRILL        NOT AVBL
$$

WIZ013-073-271800-
NORTHEAST WISCONSIN

CITY           SKY/WX    TMP DP  RH WIND       PRES   REMARKS
IRON MOUNTAIN  CLOUDY    71  65  81 NW8       30.01F
MARINETTE      LGT RAIN N/A N/A N/A N6        30.03R
$$

WIZ017-030-035>037-045-271800-
CENTRAL WISCONSIN

CITY           SKY/WX    TMP DP  RH WIND       PRES   REMARKS
MEDFORD        NOT AVBL
WAUSAU         CLOUDY    71  66  84 SE9       30.00F
MOSINEE        MOSUNNY   73  68  83 E7        30.03F
MARSHFIELD     MOSUNNY   78  65  63 SE6       30.02F
WISC RAPIDS    CLOUDY    79  64  60 E9        30.03F
STEVENS POINT  NOT AVBL
WAUPACA        NOT AVBL
SHAWANO        NOT AVBL
CLINTONVILLE   NOT AVBL
WAUTOMA        PTSUNNY   74  64  71 N21       30.02R
$$

WIZ038-039-048-051-271800-
FOX VALLEY

CITY           SKY/WX    TMP DP  RH WIND       PRES   REMARKS
NWS GREEN BAY  MOSUNNY   80  67  64 N13       30.03R
APPLETON       NOT AVBL
OSHKOSH        PTSUNNY   84  68  58 W6        30.01R
FOND DU LAC    PTSUNNY   84  70  62 W5        30.00F
$$

WIZ022-050-052-271800-
EAST CENTRAL WISCONSIN

CITY           SKY/WX    TMP DP  RH WIND       PRES   REMARKS
EPHRAIM        NOT AVBL
WASHINGTON ISL NOT AVBL
STURGEON BAY   CLOUDY    73  65  75 W9        30.04R
MANITOWOC      NOT AVBL
SHEBOYGAN      PTSUNNY   84  69  60 CALM      30.00S
$$

LMZ563-521-522-541>543-271800-
LAKESHORE

STATION/POSITION TIME  TEMP    WIND        PRES    VSBY  WAVE
                       AIR SEA DIR/SP/G                  HT/PER
                 (UTC) (F)     (DEG/KT/KT) (MB)    (MI)  (FT/S)
SHEBOYGAN LKSHOR 1600   72      50/  5/  6 1015.9R
KEWAUNEE LKSHORE 1600   71     210/  2/  4 1015.8R
ALGOMA MARINA    1613          320/ 12/ 16   N/A
NORTHPORT PIER   1600   75     300/  4/  8 1015.6S
N MID LAKE BUOY  1550   70 70  290/  8/ 10 1014.9R         1/ 4
SISTER BAY LKSHO 1606   75     320/  6/  7   N/A
CHAMBERS ISLAND  1600   75     180/  2/  6 1015.6R
MENOMINEE LKSHOR 1600   76     240/  9/ 14 1015.5R
$$




USA.gov is the U.S. government's official web portal to all federal, state and local government web resources and services.